DECAYED

CZ-6A DEB, 61342 (Decayed)

Orbit data source: Space-Track

CZ-6A DEB, 61342 was space debris in LEO originally from a launch on Tue, 06 Aug 2024 UTC launched from the Taiyaun Space Center, China (TSC). Debris objects in space refer to the collection of defunct objects orbiting the Earth. Examples of debris include non-operational satellites, rocket bodies, and fragments generated from explosions, collisions, or faulty payload assembly.

Not visible in the next 10 days
Identifier
61342, 2024-140VF
Orbit
Decayed
Country
Flag of CNCN / PRC
Related business
Manufacturer
SAST
Mission
Decayed spacecraft
Bus & Motor
Unknown
Mass
Unknown
Launch date (UTC)
2024-08-06 (2 years ago)
Launch vehicle
Unknown
Launch site
Taiyaun Space Center, China (TSC)
Object type
Payload
Rocket body
Debris
Shape & HBR
Unknown shape, 0.1 m
Radar Cross Section
Medium (>0.1 m² and <1 m²)

Expand to show TLE details & history
Last TLE update: 1 year ago

TLE from 1 year ago
0 CZ-6A DEB
1 61342U 24140VF  24365.92532946  .00745119  00000-0  10115-1 0  9993
2 61342  89.2810 338.2361 0096854 180.8661 179.2450 15.50178577 17949
Epoch: 2024-12-30T22:12Z
TLE epoch observation values (Epoch: 2024-12-30T22:12:28.465Z)
Latitude
-0.00006°
Longitude
-94.72283°
Altitude
485.259 km
Speed
7.586 km/s
True Right ascension
22h 32m 56s
True Declination
0° 00' 00"
Sunlit
Object was in daylight at epoch
Visualization orbit readout
Latitude
Unknown
Longitude
Unknown
Altitude
Unknown
Speed
Unknown
Apparent Right ascension
Unknown
Apparent Declination
Unknown
Sunlit
N/A
Visualization observer readout
Local Sidereal Time
07:18:37
Azimuth
Unknown
Elevation
Unknown
Doppler factor
Unknown
Orbital elements
Apogee altitude
478.744 km
Perigee altitude
347.195 km
Semi-major axis
6,791.107 km
Eccentricity
0.00969
Inclination
89.281°
RAAN
338.2361°
Arg. of periapsis
180.8661°
True anomaly
179.25945°
Mean anomaly
179.245°
Eccentric anomaly
179.25224°
Mean motion
3.87822 °/min
Orbital period
92.83 mins
BSTAR
0.010115
Loading maneuver chart data...
Computing Atmospheric mass density...
Loading historical data...
Loading historical data...
Loading historical data...
Loading historical data...
Loading historical data...
Loading historical data...
Loading historical data...

Documentation

Showing up to 5 results
|